[[{"header":{"parameterUnit":"m.s-1","parameterCategory":1,"la1":30.2991,"la2":30.254,"lo1":-89.0895,"lo2":-89.0444,"dy":0.0017,"dx":0.0017,"nx":28,"ny":28,"refTime":"2025-09-15T03:00:00:Z","depth":0,"parameterNumber":2,"parameterNumberName":"U-component_of_WINDS"},"data":[0,0,0,0,0,0,0,0,0,0,0,0,0,0,0,0,0,0,0,0,0,0,0,0,0,0,0,0,0,0,0,0,0,0,0,0,0,0,0,0,0,0,0,0,0,0,0,0,0,0,0,0,0,0,0,0,0,0,-0.8177,-0.8176,0,-0.8111,-0.811,-0.8109,-0.8061,-0.8061,-0.8061,-0.806,-0.7991,-0.799,-0.7989,0,0,0,0,0,0,0,0,0,0,0,0,0,-0.8262,-0.8261,-0.8177,-0.8176,-0.8175,-0.8111,-0.811,-0.8109,-0.8062,-0.8061,-0.8061,-0.806,-0.7992,-0.799,-0.7988,0,0,0,0,0,0,0,0,0,0,0,0,0,-0.8214,-0.826,-0.8177,-0.8144,-0.814,-0.8111,-0.811,-0.8109,-0.8062,-0.8061,-0.806,-0.806,-0.7993,-0.799,-0.7988,-0.7987,0,0,-0.7982,-0.7981,0,0,0,0,0,0,0,0,-0.8216,-0.821,-0.815,-0.8146,-0.8142,-0.8094,-0.8115,-0.8068,-0.8062,-0.8091,-0.806,-0.806,-0.8026,-0.8021,-0.801,-0.7983,-0.798,-0.7981,-0.798,-0.7979,-0.7978,0,0,0,0,0,0,0,-0.822,-0.8213,-0.8151,-0.8149,-0.8144,-0.8132,-0.8125,-0.8106,-0.8063,-0.8089,-0.8085,-0.8078,-0.8024,-0.8012,-0.8008,-0.7979,-0.7981,-0.7979,-0.7978,-0.7977,-0.7949,-0.795,0,0,0,0,0,0,-0.8228,-0.8216,-0.8153,-0.8149,-0.8179,-0.8131,-0.8123,-0.811,-0.8063,-0.8055,-0.8079,-0.8076,-0.8016,-0.801,-0.8005,-0.8001,-0.7979,-0.7977,-0.7976,-0.7949,-0.7949,-0.795,0,0,0,0,0,0,-0.823,-0.8223,-0.8156,-0.8181,-0.8172,-0.813,-0.8116,-0.8109,-0.8097,-0.8055,-0.8047,-0.8075,-0.8015,-0.8008,-0.7992,-0.7998,-0.7976,-0.7974,-0.7948,-0.7949,-0.795,-0.7992,0,0,0,0,0,0,-0.8233,-0.8224,-0.8223,-0.8182,-0.8171,-0.8143,-0.8117,-0.8108,-0.8094,-0.809,-0.8049,-0.8042,-0.8014,-0.7995,-0.799,-0.7994,-0.7972,-0.7947,-0.7948,-0.7949,-0.799,-0.7994,-0.7998,0,0,0,0,0,-0.8236,-0.8237,-0.8223,-0.8216,-0.8169,-0.8144,-0.8137,-0.8106,-0.8094,-0.8093,-0.8066,-0.8043,-0.7998,-0.7994,-0.7987,-0.7991,-0.7947,-0.7948,-0.7949,-0.7988,-0.7993,-0.7998,0,0,0,0,0,0,-0.828,-0.8231,-0.8215,-0.8203,-0.8178,-0.8136,-0.8133,-0.8112,-0.809,-0.8087,-0.8049,-0.804,-0.8028,-0.8008,-0.8004,-0.7988,-0.797,-0.797,-0.8001,-0.8006,-0.801,-0.8015,-0.797,0,0,0,0,0,-0.8288,-0.8272,-0.823,-0.8223,-0.8212,-0.8175,-0.8163,-0.8141,-0.8113,-0.8102,-0.8074,-0.8049,-0.8029,-0.8016,-0.7995,-0.7987,-0.7978,-0.7986,-0.799,-0.7994,-0.7994,-0.7989,-0.7993,-0.7954,-0.7954,-0.7954,0,0,-0.8304,-0.8276,-0.8268,-0.8231,-0.821,-0.8194,-0.8166,-0.8151,-0.8139,-0.81,-0.8083,-0.8062,-0.803,-0.8018,-0.8011,-0.8001,-0.8003,-0.7995,-0.7999,-0.7997,-0.7991,-0.7995,-0.7998,-0.7955,-0.7955,-0.7955,0,0,-0.8327,-0.8304,-0.8296,-0.8275,-0.8242,-0.8218,-0.8216,-0.8177,-0.8162,-0.8144,-0.8115,-0.8101,-0.8067,-0.8046,-0.8031,-0.8047,-0.8025,-0.8041,-0.8062,-0.8058,-0.8061,-0.8063,-0.807,-0.8072,-0.8042,-0.8042,-0.8042,0,-0.8351,-0.8327,-0.8294,-0.8281,-0.8266,-0.8231,-0.8222,-0.8203,-0.8166,-0.8156,-0.8146,-0.8103,-0.808,-0.8063,-0.8067,-0.8055,-0.8053,-0.8046,-0.8063,-0.8065,-0.8067,-0.8073,-0.8075,-0.8044,-0.8044,-0.8044,-0.8043,0,-0.8359,-0.8343,-0.834,-0.8306,-0.8291,-0.828,-0.8246,-0.8234,-0.8214,-0.8191,-0.8174,-0.8144,-0.8118,-0.8112,-0.8091,-0.8092,-0.8087,-0.807,-0.8051,-0.8074,-0.8078,-0.808,-0.8047,-0.8046,-0.8046,-0.8045,0,0,-0.8406,-0.8354,-0.8354,-0.8338,-0.8301,-0.8287,-0.8276,-0.825,-0.8241,-0.8217,-0.8206,-0.8179,-0.8164,-0.8147,-0.8124,-0.812,-0.8136,-0.8103,-0.8102,-0.8111,-0.8136,-0.8149,-0.8152,-0.8121,-0.8122,-0.8122,-0.8139,0,-0.8423,-0.84,-0.8371,-0.8358,-0.8343,-0.831,-0.8299,-0.8275,-0.8254,-0.8238,-0.8214,-0.8196,-0.8176,-0.8166,-0.8161,-0.8135,-0.814,-0.8133,-0.8111,-0.8111,-0.8121,-0.8154,-0.8168,-0.8185,-0.814,-0.8141,-0.8141,0,-0.8439,-0.8418,-0.8404,-0.8368,-0.8361,-0.8352,-0.8327,-0.8312,-0.8284,-0.8269,-0.8251,-0.8227,-0.8213,-0.8196,-0.8177,-0.8173,-0.8162,-0.8149,-0.8149,-0.8145,-0.8127,-0.8153,-0.819,-0.8193,-0.8143,-0.8143,-0.8143,0,-0.8476,-0.8443,-0.843,-0.8418,-0.8376,-0.8371,-0.8353,-0.8325,-0.8312,-0.829,-0.8281,-0.8258,-0.8245,-0.8227,-0.8198,-0.8188,-0.8182,-0.8163,-0.817,-0.817,-0.817,-0.817,-0.8206,-0.8163,-0.8162,-0.8162,-0.8162,0,-0.8498,-0.8491,-0.8446,-0.8439,-0.843,-0.8396,-0.8389,-0.8368,-0.8343,-0.8331,-0.8301,-0.8291,-0.8252,-0.8237,-0.8214,-0.8202,-0.8196,-0.8184,-0.8178,-0.8187,-0.8188,-0.8179,-0.8177,-0.8163,-0.8163,-0.8163,-0.8163,0,-0.8537,-0.8507,-0.8491,-0.8454,-0.8444,-0.8439,-0.8407,-0.8398,-0.8376,-0.8361,-0.8355,-0.832,-0.83,-0.8269,-0.8241,-0.8225,-0.8218,-0.8208,-0.8228,-0.8224,-0.8233,-0.8233,-0.8264,-0.8267,-0.8222,-0.8222,-0.8223,0,-0.8553,-0.8547,-0.8509,-0.8499,-0.8483,-0.8467,-0.8454,-0.8421,-0.8408,-0.8377,-0.8372,-0.8351,-0.8332,-0.8304,-0.8275,-0.8254,-0.8243,-0.8255,-0.8239,-0.8249,-0.8244,-0.8244,-0.8244,-0.8259,-0.826,-0.826,-0.8261,0,-0.8585,-0.8571,-0.8553,-0.8531,-0.8516,-0.8496,-0.8475,-0.8469,-0.8431,-0.8419,-0.8399,-0.8385,-0.8357,-0.8336,-0.8311,-0.8293,-0.8271,-0.8266,-0.8267,-0.8276,-0.8288,-0.8282,-0.8238,-0.8265,-0.8265,-0.8265,-0.8264,-0.8264,-0.8613,-0.8607,-0.8579,-0.8561,-0.8542,-0.8523,-0.8514,-0.849,-0.8473,-0.8448,-0.843,-0.8412,-0.8385,-0.8349,-0.8333,-0.8318,-0.8308,-0.8309,-0.8309,-0.831,-0.8314,-0.829,-0.8313,-0.8313,-0.8313,-0.8313,-0.8313,0,-0.8644,-0.8625,-0.8609,-0.8581,-0.8567,-0.8548,-0.8524,-0.8513,-0.8498,-0.8475,-0.8458,-0.8436,-0.8416,-0.8387,-0.8365,-0.8359,-0.8349,-0.8355,-0.8355,-0.8351,-0.8323,-0.8325,-0.8364,-0.8364,-0.8364,-0.8364,-0.8364,-0.8364,-0.8659,-0.8647,-0.863,-0.8609,-0.8589,-0.8572,-0.856,-0.8543,-0.8525,-0.8502,-0.8486,-0.8467,-0.8442,-0.8418,-0.84,-0.8392,-0.8385,-0.8395,-0.8383,-0.8358,-0.8353,-0.8349,-0.835,-0.8393,-0.8393,-0.8413,-0.8413,-0.8413]},{"header":{"parameterUnit":"m.s-1","parameterCategory":1,"la1":30.2991,"la2":30.254,"lo1":-89.0895,"lo2":-89.0444,"dy":0.0017,"dx":0.0017,"nx":28,"ny":28,"refTime":"2025-09-15T03:00:00:Z","depth":0,"parameterNumber":3,"parameterNumberName":"V-component_of_WINDS"},"data":[0,0,0,0,0,0,0,0,0,0,0,0,0,0,0,0,0,0,0,0,0,0,0,0,0,0,0,0,0,0,0,0,0,0,0,0,0,0,0,0,0,0,0,0,0,0,0,0,0,0,0,0,0,0,0,0,0,0,1.3604,1.3604,0,1.3534,1.3534,1.3533,1.3535,1.3536,1.3537,1.3538,1.3461,1.3458,1.3455,0,0,0,0,0,0,0,0,0,0,0,0,0,1.3735,1.3732,1.3604,1.3604,1.3603,1.3535,1.3534,1.3533,1.3535,1.3537,1.3538,1.3539,1.3462,1.3459,1.3455,0,0,0,0,0,0,0,0,0,0,0,0,0,1.3673,1.3732,1.3605,1.3596,1.3595,1.3535,1.3534,1.3532,1.3535,1.3537,1.3538,1.3539,1.3463,1.3459,1.3455,1.3397,0,0,1.3441,1.3439,0,0,0,0,0,0,0,0,1.3676,1.3668,1.3598,1.3596,1.3595,1.3545,1.3551,1.3487,1.3535,1.3557,1.3538,1.354,1.3488,1.3481,1.3465,1.3393,1.339,1.344,1.3438,1.3436,1.3435,0,0,0,0,0,0,0,1.3681,1.3671,1.3577,1.3597,1.3595,1.3594,1.3587,1.3539,1.3515,1.3556,1.3556,1.3548,1.3487,1.3469,1.3463,1.3389,1.3441,1.3437,1.3434,1.3432,1.3265,1.3264,0,0,0,0,0,0,1.3687,1.3674,1.3579,1.3574,1.364,1.359,1.3582,1.356,1.3515,1.351,1.3546,1.3548,1.3476,1.3468,1.346,1.3388,1.3436,1.3432,1.3429,1.3267,1.3265,1.3263,0,0,0,0,0,0,1.369,1.3679,1.3582,1.3624,1.3612,1.3586,1.3561,1.3557,1.3539,1.3509,1.3504,1.3533,1.3477,1.3466,1.3413,1.3386,1.343,1.3426,1.3269,1.3266,1.3264,1.3245,0,0,0,0,0,0,1.3694,1.368,1.3659,1.3624,1.361,1.3537,1.3559,1.3555,1.3532,1.3534,1.3494,1.3489,1.3477,1.3419,1.3408,1.338,1.3422,1.3271,1.3268,1.3265,1.3248,1.3242,1.3237,0,0,0,0,0,1.3699,1.3656,1.3658,1.3646,1.3584,1.3535,1.3527,1.3515,1.353,1.3508,1.3488,1.3491,1.3391,1.3414,1.3401,1.3372,1.3273,1.3269,1.3265,1.325,1.3243,1.3237,0,0,0,0,0,0,1.3686,1.3651,1.3653,1.3598,1.357,1.3536,1.3508,1.3509,1.3474,1.3477,1.3462,1.3453,1.3399,1.338,1.3406,1.3313,1.3334,1.3327,1.3327,1.332,1.3314,1.3319,1.3418,0,0,0,0,0,1.3678,1.3643,1.3614,1.3568,1.3554,1.3533,1.3512,1.3506,1.3475,1.3463,1.3439,1.3407,1.3369,1.3344,1.3307,1.3246,1.3236,1.3219,1.3214,1.321,1.3203,1.3168,1.3159,1.325,1.325,1.325,0,0,1.3658,1.3635,1.3614,1.3565,1.3542,1.3505,1.3523,1.3483,1.3455,1.3456,1.3403,1.3385,1.3349,1.3291,1.3265,1.3274,1.3176,1.3205,1.3202,1.3197,1.3163,1.3154,1.3146,1.3247,1.3248,1.3248,0,0,1.3603,1.3584,1.3542,1.352,1.3486,1.3473,1.3463,1.3429,1.3417,1.3365,1.3365,1.333,1.3265,1.3239,1.3217,1.3153,1.3152,1.3141,1.3112,1.3077,1.307,1.3063,1.3038,1.3029,1.3135,1.3135,1.3135,0,1.3583,1.3529,1.352,1.348,1.3457,1.3459,1.3416,1.3394,1.3349,1.3333,1.3345,1.3262,1.3238,1.3173,1.3158,1.3141,1.3127,1.3144,1.3072,1.3065,1.3059,1.3035,1.3026,1.3134,1.3134,1.3134,1.3134,0,1.3504,1.3466,1.3437,1.3395,1.3369,1.3328,1.3311,1.3286,1.3282,1.3267,1.3213,1.3185,1.3141,1.3126,1.3121,1.306,1.3067,1.3076,1.3096,1.3049,1.3026,1.3017,1.3132,1.3132,1.3133,1.3133,0,0,1.3437,1.3393,1.3381,1.3362,1.3325,1.3295,1.3253,1.3212,1.319,1.3159,1.3121,1.3067,1.3075,1.305,1.3042,1.3013,1.2961,1.3025,1.3024,1.3012,1.2888,1.288,1.2869,1.2962,1.296,1.2959,1.289,0,1.3377,1.3304,1.3295,1.3229,1.3193,1.3194,1.3157,1.313,1.3115,1.308,1.3063,1.3023,1.3038,1.3023,1.2994,1.2973,1.2935,1.2978,1.2924,1.2922,1.293,1.2857,1.2848,1.2785,1.2882,1.288,1.2879,0,1.3296,1.3264,1.3195,1.3163,1.3147,1.3114,1.3075,1.3044,1.3012,1.3003,1.2975,1.2972,1.2926,1.295,1.2886,1.2915,1.2893,1.2879,1.2877,1.2869,1.2896,1.2845,1.2765,1.2755,1.2865,1.2866,1.2867,0,1.3251,1.3191,1.3142,1.3126,1.3087,1.3063,1.3046,1.3016,1.2992,1.2958,1.2941,1.2902,1.288,1.2849,1.2834,1.2853,1.2769,1.2793,1.2758,1.2758,1.2737,1.2738,1.265,1.2728,1.2728,1.2728,1.2728,0,1.3183,1.314,1.3121,1.309,1.3041,1.3032,1.2983,1.2966,1.2939,1.2904,1.2903,1.2869,1.2853,1.2816,1.2804,1.2751,1.2742,1.2731,1.2728,1.273,1.2731,1.2712,1.2715,1.2726,1.2726,1.2727,1.2727,0,1.3123,1.311,1.3055,1.3024,1.3015,1.298,1.2952,1.2921,1.2907,1.2862,1.2851,1.2828,1.2784,1.2767,1.2714,1.2706,1.2644,1.2646,1.2655,1.2653,1.2618,1.2621,1.2513,1.2497,1.2588,1.2587,1.2587,0,1.3079,1.3046,1.3012,1.2988,1.2971,1.2933,1.2909,1.2898,1.2872,1.2834,1.2807,1.2764,1.2729,1.2659,1.2636,1.2595,1.2594,1.2559,1.2587,1.259,1.259,1.2591,1.2586,1.2553,1.2552,1.2551,1.2551,0,1.3001,1.2996,1.2962,1.2925,1.2896,1.2866,1.2837,1.2818,1.2802,1.2773,1.273,1.2703,1.2649,1.2605,1.2563,1.2543,1.2543,1.2543,1.2532,1.2531,1.2537,1.2531,1.2637,1.2544,1.2545,1.2545,1.2546,1.2546,1.2946,1.2916,1.2887,1.2848,1.2826,1.2799,1.2768,1.275,1.2714,1.2671,1.2666,1.2619,1.2587,1.253,1.2508,1.247,1.2479,1.2464,1.2459,1.2455,1.2451,1.2546,1.2462,1.2463,1.2463,1.2463,1.2463,0,1.2866,1.2848,1.2813,1.2772,1.2741,1.2747,1.2715,1.2688,1.2647,1.2618,1.2584,1.2533,1.2491,1.2466,1.2423,1.2397,1.2395,1.2385,1.2386,1.238,1.2447,1.2459,1.2387,1.2387,1.2387,1.2387,1.2387,1.2387,1.282,1.2769,1.2761,1.2698,1.268,1.2634,1.2615,1.2589,1.2566,1.2509,1.2475,1.246,1.2431,1.2387,1.2348,1.2341,1.2324,1.2313,1.2306,1.2368,1.2376,1.2383,1.2395,1.231,1.231,1.2243,1.2242,1.2241]}]]